Regional Weather Roundup
Issued by NWS

Home | Current Version | Previous Version | Graphics & Text | Print | Product List | Glossary On
Versions: 1 2 3 4 5 6 7 8 9 10 11 12 13 14 15 16 17 18 19 20 21 22 23 24 25 26 27 28 29 30 31 32 33 34 35 36 37 38 39 40 41 42 43 44 45 46 47 48 49 50
000
ASUS43 KOAX 290902
RWRNE

WEATHER ROUNDUP FOR NEBRASKA
NATIONAL WEATHER SERVICE OMAHA NE
400 AM CDT MON MAY 29 2017

NOTES: SATELLITE DATA IS BEING USED TO AUGMENT CLOUD COVER ABOVE
       12000 FEET.
       "FAIR" INDICATES FEW OR NO CLOUDS BELOW 12,000 FEET WITH NO
       SIGNIFICANT WEATHER AND/OR OBSTRUCTIONS TO VISIBILITY.

  * THESE STATIONS DO NOT REPORT WEATHER SUCH AS RAIN...SNOW OR FOG.

NEZ001>004-019>022-054>056-291000-
NEBRASKA PANHANDLE

CITY           SKY/WX    TMP DP  RH WIND       PRES   REMARKS
SCOTTSBLUFF    MOCLDY    50  43  77 NW10      30.18S
ALLIANCE       CLEAR     44  42  93 W12       30.14R
CHADRON        CLEAR     50  44  80 NW12      30.12F
GORDON         FAIR      45  41  88 W8        30.10S
KIMBALL        PTCLDY    46  42  85 W10       30.22S
SIDNEY         CLEAR     44  41  89 NW8       30.19S
$$

NEZ057>060-069>072-079>082-291000-
SOUTHWEST NEBRASKA

CITY           SKY/WX    TMP DP  RH WIND       PRES   REMARKS
NORTH PLATTE   CLEAR     50  47  89 W10       30.08S
IMPERIAL       CLEAR     51  44  77 W9        30.13S
LEXINGTON      CLEAR     51  46  84 NW9       30.05R
MCCOOK         CLEAR     49  46  90 W7        30.09S
OGALLALA       CLEAR     48  45  89 W6        30.12S
$$

NEZ005>010-023>029-035>040-094-291000-
NORTH CENTRAL NEBRASKA

CITY           SKY/WX    TMP DP  RH WIND       PRES   REMARKS
VALENTINE      CLEAR     50  44  80 NW9       30.04S
AINSWORTH      CLEAR     51  47  87 W5        30.03S
BROKEN BOW     CLEAR     54  46  74 NW16      30.02S
O`NEILL        CLEAR     52  45  77 NW8       29.98S
ORD            CLEAR     54  45  71 NW13      29.98S
THEDFORD       CLEAR     51  46  84 W10       30.07R
$$

NEZ041-046>049-061>064-073>077-083>087-291000-
SOUTH CENTRAL NEBRASKA

CITY           SKY/WX    TMP DP  RH WIND       PRES   REMARKS
GRAND ISLAND   CLEAR     54  47  77 W10       30.00R
AURORA         CLEAR     55  46  70 W10       29.99R
HASTINGS       CLEAR     56  46  69 W12       30.02R
HEBRON         CLEAR     55  49  79 W3        30.00R
HOLDREGE       PTCLDY    52  45  77 W7        30.04S
KEARNEY *      CLEAR     55  43  62 W8        30.03R
$$

NEZ011>018-030>034-042>045-291000-
NORTHEAST NEBRASKA

CITY           SKY/WX    TMP DP  RH WIND       PRES   REMARKS
NORFOLK        CLEAR     54  44  69 W8        29.94R
ALBION         CLEAR     53  46  78 NW8       29.97R
BLAIR          CLEAR     58  43  58 W7        29.92R
FREMONT        PTCLDY    53  45  73 W8        29.93R
TEKAMAH        CLEAR     57  45  64 NW3       29.91R
WAYNE          CLEAR     53  46  75 W6        29.92S
$$

NEZ050>053-065>068-078-088>093-291000-
SOUTHEAST NEBRASKA

CITY           SKY/WX    TMP DP  RH WIND       PRES   REMARKS
LINCOLN        CLEAR     60  45  57 W6        29.97R
OMAHA EPPLEY   CLEAR     58  45  62 CALM      29.91R
BEATRICE       CLEAR     55  50  81 W7        29.97R
FALLS CITY     MOCLDY    55  49  80 CALM      29.92S
NEBRASKA CITY  CLOUDY    61  41  47 W9        29.94R
PLATTSMOUTH    CLEAR     60  44  56 W5        29.93R
$$

NEZ044-045-051>053-067-291000-
OMAHA AREA

CITY           SKY/WX    TMP DP  RH WIND       PRES   REMARKS
OMAHA EPPLEY   CLEAR     58  45  62 CALM      29.91R
BLAIR          CLEAR     58  43  58 W7        29.92R
FREMONT        PTCLDY    53  45  73 W8        29.93R
MILLARD        CLEAR     56  49  76 CALM      29.93R
OFFUTT AFB     CLEAR     54  46  75 CALM      29.91R
PLATTSMOUTH    CLEAR     60  44  56 W5        29.93R
WAHOO          FAIR      59  44  57 W10       29.94R
$$




USA.gov is the U.S. government's official web portal to all federal, state and local government web resources and services.